Vorticity
7 5 4 6 8 8 7 8 10 14 7 10 11 9 13 12 7 13 2 1 3 3 2 3 5 2 5 7 8 12 8 9 9 6 8 7 6 5 6 5 5 4 5 6
7 7 7 7 6 6 8 10 10 8 14 9 8 8 10 11 12 13 11 3 1 -1 1 2 3 -2 3 10 8 10 9 7 8 8 9 7 7 7 6 5 4 4 5 6
9 11 10 7 7 7 7 6 10 12 8 12 13 11 9 11 13 12 9 10 3 3 3 2 2 3 7 11 8 7 8 6 7 9 8 8 7 7 6 5 5 5 5 5
8 8 7 7 8 6 6 8 9 9 10 10 12 10 9 11 11 10 11 8 7 4 1 4 4 7 7 9 8 7 7 7 6 8 8 7 7 6 6 5 5 5 5 5
9 8 9 7 3 6 9 11 5 8 6 8 7 9 15 6 8 14 11 8 6 6 3 5 9 8 6 8 7 8 8 7 7 8 8 8 8 6 6 6 6 6 6 5
7 6 7 3 5 6 7 8 7 5 6 5 9 10 5 8 13 17 15 10 6 6 5 5 4 6 5 7 7 7 8 8 8 7 8 8 8 7 7 7 6 6 6 6
9 9 7 8 3 3 5 5 7 8 6 7 7 7 13 10 10 12 17 15 11 9 10 8 6 5 5 7 7 8 7 7 9 9 8 8 8 7 7 7 7 6 6 6
10 6 10 12 8 5 11 9 -0 3 1 5 9 3 2 17 17 16 16 13 19 14 12 10 9 11 9 8 8 9 8 7 7 7 8 8 7 7 7 7 7 6 6 5
8 5 14 9 9 10 12 -4 15 8 2 -1 3 5 8 13 18 14 12 12 15 14 13 10 9 9 10 7 8 11 8 8 8 8 8 7 7 7 6 6 6 6 5 5
4 11 7 8 8 13 4 5 8 6 6 4 7 4 7 12 11 15 12 12 10 13 17 12 12 14 11 8 11 10 9 8 8 7 7 7 7 7 6 6 6 6 6 6
15 36 5 16 9 7 10 5 3 5 8 3 5 10 6 10 13 15 12 20 12 11 12 11 9 14 12 10 10 10 9 9 9 7 7 7 8 8 8 8 7 7 7 7
4 8 38 15 9 15 13 9 3 9 3 2 5 2 2 1 2 21 20 14 16 13 10 13 11 9 12 11 10 8 6 6 8 10 9 9 9 9 8 8 8 8 8 8
29 10 3 28 14 2 11 11 12 6 5 7 6 2 11 1 2 3 6 14 27 7 15 12 15 10 9 11 8 5 6 8 7 7 7 7 8 8 8 8 8 7 7 7
-6 4 6 0 7 15 26 19 9 10 11 3 7 2 7 11 8 9 8 10 8 14 7 7 5 4 8 9 8 8 7 7 7 6 5 5 6 6 7 7 8 8 8 8
-2 8 14 17 12 5 -1 16 21 7 16 8 0 12 7 6 10 5 6 7 5 9 18 15 10 8 5 6 8 9 10 9 7 8 7 7 7 6 7 8 9 9 8 7
19 16 -9 13 3 6 14 2 6 14 26 5 7 7 5 11 14 9 6 5 8 9 6 4 8 10 6 9 11 13 8 8 9 12 12 5 2 3 2 6 13 14 13 10
15 11 11 14 12 11 10 0 4 8 6 15 8 12 18 8 6 4 5 14 15 11 7 3 6 6 7 9 4 5 4 6 6 7 8 11 11 18 13 9 6 4 4 4
2 20 11 11 17 15 15 7 6 10 4 10 23 16 14 12 13 10 6 5 2 1 11 11 11 6 10 14 11 14 17 17 15 13 8 5 4 5 5 5 6 6 6 7
9 6 2 20 11 23 15 16 17 4 5 7 3 -3 5 10 13 18 18 18 9 6 3 1 7 11 15 7 7 7 5 8 5 2 3 5 4 3 3 6 5 6 11 9
10 6 10 8 11 17 17 17 10 22 20 15 10 8 14 8 12 15 12 10 9 18 21 17 11 15 12 10 8 8 6 4 -5 4 5 4 9 10 11 8 11 9 8 7
9 11 10 16 12 16 10 9 16 3 15 14 13 21 10 8 1 3 4 5 16 8 10 8 11 13 9 4 -2 2 9 5 1 10 14 12 10 9 7 6 5 5 5 4
19 12 12 9 10 12 15 5 11 10 15 13 10 2 27 11 5 7 5 9 10 4 6 7 8 6 9 11 6 5 9 14 13 11 9 8 6 3 5 4 3 4 6 6
16 12 13 11 12 13 12 17 8 17 15 15 22 13 3 17 14 8 11 12 14 15 13 9 16 12 8 8 14 14 14 9 8 6 4 3 2 4 5 6 7 7 6 5
24 12 13 10 14 13 10 13 10 15 16 10 22 24 15 7 9 9 11 9 16 19 10 5 7 11 14 16 12 9 7 3 2 3 2 4 7 8 7 5 5 6 7 8
17 17 13 15 12 13 12 15 11 23 14 20 18 19 16 17 11 13 17 15 12 12 15 12 12 11 8 4 3 4 2 2 6 8 8 6 5 5 7 10 12 15 15 14
21 20 15 18 14 14 10 18 13 19 16 10 13 15 19 23 21 15 15 13 17 14 10 7 8 3 4 2 2 4 7 8 6 6 7 8 12 15 15 13 9 10 11 12
Height
5647 5650 5653 5662 5669 5671 5669 5672 5672 5672 5681 5681 5684 5685 5692 5697 5701 5708 5712 5718 5722 5725 5729 5733 5736 5738 5740 5742 5745 5748 5751 5754 5757 5760 5764 5767 5770 5774 5777 5779 5782 5784 5787 5788
5641 5642 5654 5658 5659 5662 5663 5666 5666 5668 5674 5674 5676 5678 5682 5687 5694 5700 5704 5709 5713 5717 5722 5726 5729 5732 5733 5735 5738 5741 5744 5748 5750 5754 5757 5760 5763 5767 5770 5773 5775 5778 5780 5782
5638 5648 5649 5650 5653 5655 5658 5660 5661 5665 5666 5667 5670 5670 5675 5680 5685 5691 5696 5701 5704 5709 5714 5718 5721 5724 5726 5728 5731 5734 5737 5740 5743 5746 5750 5753 5756 5760 5764 5766 5768 5771 5773 5775
5631 5637 5639 5642 5646 5650 5651 5657 5655 5656 5660 5660 5661 5661 5665 5671 5676 5680 5686 5691 5696 5700 5704 5708 5712 5716 5718 5721 5724 5726 5730 5732 5735 5739 5742 5746 5749 5752 5756 5759 5761 5763 5765 5767
5628 5632 5636 5637 5643 5646 5650 5645 5647 5650 5651 5650 5653 5652 5657 5660 5664 5672 5678 5683 5687 5691 5695 5699 5704 5707 5711 5713 5717 5719 5722 5725 5728 5731 5735 5738 5741 5744 5747 5750 5752 5755 5757 5759
5620 5622 5625 5629 5635 5636 5635 5639 5641 5643 5644 5639 5645 5648 5652 5652 5664 5669 5671 5675 5678 5683 5687 5692 5696 5700 5703 5706 5709 5711 5715 5717 5720 5723 5726 5730 5733 5736 5739 5741 5743 5746 5749 5751
5615 5616 5620 5624 5626 5627 5628 5632 5634 5636 5634 5634 5644 5641 5645 5645 5654 5659 5664 5667 5671 5675 5680 5684 5688 5692 5695 5698 5701 5703 5707 5710 5713 5715 5718 5721 5724 5727 5729 5732 5735 5737 5739 5741
5604 5606 5610 5617 5618 5620 5625 5628 5630 5629 5629 5632 5636 5628 5634 5644 5649 5651 5654 5658 5663 5667 5671 5675 5679 5683 5686 5689 5692 5695 5698 5701 5704 5707 5709 5712 5715 5717 5720 5723 5725 5727 5729 5731
5597 5598 5602 5605 5611 5613 5617 5613 5626 5626 5626 5624 5624 5626 5630 5635 5640 5642 5646 5648 5652 5656 5661 5665 5669 5673 5677 5681 5684 5687 5689 5692 5695 5697 5700 5702 5705 5707 5710 5712 5715 5717 5719 5720
5590 5591 5593 5596 5599 5602 5604 5611 5612 5613 5612 5613 5618 5620 5621 5629 5632 5634 5637 5641 5644 5647 5651 5656 5660 5663 5667 5671 5674 5677 5680 5682 5685 5688 5690 5692 5694 5697 5699 5701 5703 5705 5707 5709
5580 5581 5584 5583 5588 5595 5596 5596 5601 5604 5605 5608 5612 5614 5616 5620 5623 5627 5630 5632 5636 5640 5643 5647 5651 5654 5658 5661 5664 5667 5670 5672 5675 5678 5680 5682 5685 5686 5688 5690 5692 5693 5695 5696
5572 5570 5570 5575 5578 5581 5583 5588 5591 5593 5599 5600 5606 5609 5608 5611 5616 5620 5623 5626 5628 5631 5635 5639 5642 5646 5649 5652 5655 5658 5661 5663 5665 5668 5670 5672 5674 5676 5677 5679 5680 5681 5682 5683
5560 5560 5562 5563 5566 5568 5571 5577 5581 5585 5588 5589 5593 5598 5605 5605 5609 5613 5615 5618 5621 5624 5628 5631 5634 5637 5640 5643 5646 5649 5651 5653 5655 5657 5659 5661 5663 5665 5666 5667 5668 5668 5669 5670
5546 5547 5550 5554 5557 5558 5560 5565 5570 5573 5575 5582 5583 5590 5594 5598 5601 5604 5607 5610 5613 5616 5618 5622 5625 5628 5631 5634 5637 5639 5641 5643 5645 5647 5649 5650 5651 5652 5653 5654 5655 5655 5655 5655
5533 5535 5537 5541 5544 5547 5550 5553 5557 5559 5567 5568 5578 5580 5584 5588 5591 5593 5597 5601 5604 5607 5610 5613 5616 5619 5622 5624 5627 5629 5631 5633 5634 5635 5637 5638 5639 5640 5640 5640 5640 5640 5640 5639
5518 5521 5524 5527 5530 5534 5537 5542 5545 5550 5555 5558 5562 5568 5571 5576 5580 5583 5587 5591 5594 5597 5600 5603 5606 5609 5611 5614 5616 5618 5619 5621 5622 5623 5624 5624 5625 5626 5626 5626 5626 5625 5625 5624
5507 5508 5511 5514 5517 5520 5523 5532 5535 5539 5543 5547 5549 5558 5562 5566 5570 5573 5577 5580 5584 5587 5590 5593 5596 5599 5601 5603 5604 5606 5607 5608 5609 5610 5611 5612 5612 5612 5612 5612 5611 5611 5610 5608
5496 5497 5496 5500 5505 5503 5514 5518 5523 5528 5533 5537 5540 5546 5550 5554 5558 5563 5566 5570 5574 5577 5579 5582 5585 5587 5589 5591 5592 5594 5595 5596 5597 5597 5598 5598 5599 5599 5598 5597 5596 5594 5593 5590
5482 5484 5486 5485 5491 5496 5503 5508 5513 5516 5522 5526 5531 5535 5540 5545 5548 5552 5555 5559 5562 5565 5568 5571 5573 5575 5577 5579 5580 5582 5583 5584 5585 5585 5585 5585 5584 5583 5582 5581 5579 5577 5574 5571
5467 5470 5473 5475 5478 5483 5493 5497 5501 5503 5508 5515 5521 5525 5530 5535 5538 5542 5546 5549 5551 5554 5557 5559 5561 5563 5565 5567 5569 5570 5571 5572 5572 5572 5571 5570 5570 5568 5566 5563 5561 5558 5555 5552
5451 5454 5459 5464 5466 5471 5480 5485 5489 5493 5505 5505 5510 5514 5519 5524 5530 5533 5536 5539 5541 5544 5546 5549 5551 5553 5555 5557 5558 5559 5559 5559 5559 5558 5557 5555 5554 5552 5549 5546 5542 5539 5535 5531
5435 5440 5447 5451 5455 5462 5470 5475 5479 5485 5488 5493 5499 5504 5510 5514 5518 5522 5525 5528 5531 5534 5536 5538 5540 5542 5544 5545 5546 5547 5547 5546 5545 5544 5543 5541 5539 5536 5532 5528 5523 5518 5514 5509
5418 5426 5434 5443 5448 5455 5459 5463 5467 5473 5479 5483 5488 5493 5499 5504 5508 5512 5515 5518 5521 5524 5526 5528 5530 5531 5533 5534 5535 5535 5534 5534 5533 5532 5529 5526 5522 5518 5513 5508 5502 5496 5488 5482
5403 5412 5421 5430 5438 5444 5449 5454 5459 5464 5470 5474 5478 5483 5489 5494 5498 5501 5505 5508 5512 5514 5516 5518 5520 5521 5522 5523 5524 5524 5524 5523 5520 5517 5513 5509 5504 5498 5492 5485 5478 5470 5462 5454
5393 5402 5412 5420 5428 5435 5441 5447 5452 5456 5461 5465 5469 5474 5479 5484 5487 5491 5495 5498 5501 5504 5507 5509 5511 5512 5514 5515 5515 5513 5512 5509 5506 5502 5497 5491 5484 5477 5469 5461 5452 5443 5433 5424
5387 5395 5404 5413 5421 5428 5434 5440 5445 5449 5453 5458 5463 5467 5471 5475 5480 5483 5487 5491 5493 5496 5499 5501 5504 5505 5506 5505 5504 5501 5498 5493 5488 5483 5477 5470 5462 5454 5445 5436 5427 5414 5405 5394